Regional Weather Roundup
Issued by NWS Upton, NY

Home | Current Version | Previous Version | Text Only | Print | Product List | Glossary On
Versions: 1 2 3 4 5 6 7 8 9 10 11 12 13 14 15 16 17 18 19 20 21 22 23 24 25 26 27 28 29 30 31 32 33 34 35 36 37 38 39 40 41 42 43 44 45 46 47 48 49 50
784
ASUS41 KOKX 042302
RWROKX

REGIONAL WEATHER ROUNDUP
NATIONAL WEATHER SERVICE NEW YORK NY
700 PM EDT WED MAY 04 2016

NOTE: "FAIR" INDICATES FEW OR NO CLOUDS BELOW 12,000 FEET WITH NO
SIGNIFICANT WEATHER AND/OR OBSTRUCTIONS TO VISIBILITY.

NYZ071-072-176-178-NJZ106-104-050000-
NEW YORK CITY METRO AREA


CITY           SKY/WX    TMP DP  RH WIND       PRES   REMARKS
CENTRAL PARK   CLOUDY    50  47  89 NE5       29.76R FOG
LAGUARDIA APRT DRIZZLE   51  49  92 NE8       29.73R
KENNEDY INTL   CLOUDY    51  46  83 NE9       29.74R
NEWARK/LIBERTY LGT RAIN  50  48  93 N9        29.73S FOG
BRNX BOT. GARD   N/A     48  46  93 CALM      29.72F
TETERBORO      DRIZZLE   51  46  83 N6        29.73R FOG
$$

NYZ177-179-078>081-050000-
LONG ISLAND NEW YORK

CITY           SKY/WX    TMP DP  RH WIND       PRES   REMARKS
FARMINGDALE    LGT RAIN  49  46  90 NE8       29.73R
ISLIP          LGT RAIN  48  45  89 NE8       29.74R
SHIRLEY        LGT RAIN  48  46  93 VRB6      29.73R
RIVERHEAD        N/A     48  46  93 NE6       29.71S
WESTHAMPTON    NOT AVBL
EAST HAMPTON   RAIN      46  44  93 NE12      29.73F
MONTAUK POINT    N/A     46  43  89 NE13G22   29.76S
$$

NYZ052-065-067-050000-
HUDSON VALLEY

CITY           SKY/WX    TMP DP  RH WIND       PRES   REMARKS
WHITE PLAINS   CLOUDY    50  46  86 NE3       29.73R
NEWBURGH       CLOUDY    48  48 100 NE9       29.75S FOG
MONTGOMERY     CLOUDY    50  46  86 NE9       29.74S
POUGHKEEPSIE   CLOUDY    51  45  79 NE7       29.75S
ALBANY         CLOUDY    50  44  80 E8        29.79F
$$

NJZ001-105-106-008-010-013-015-019>022-104-050000-
NEW JERSEY

CITY           SKY/WX    TMP DP  RH WIND       PRES   REMARKS
NEWARK/LIBERTY LGT RAIN  50  48  93 N9        29.73S FOG
TETERBORO      DRIZZLE   51  46  83 N6        29.73R FOG
CALDWELL       CLOUDY    50  31  48 E8        29.73F
MORRISTOWN     CLOUDY    50  48  93 NE5       29.74S FOG
SOMERVILLE     CLOUDY    51  45  79 NE3       29.71F
SUSSEX         CLOUDY    49  46  90 NE7       29.74S
ANDOVER          N/A     49  47  93 VRB5      29.72F
TRENTON        CLOUDY    49  47  93 NE12      29.70F FOG
MILLVILLE      CLOUDY    50  46  86 NE10      29.68S
ATLANTIC CITY  CLOUDY    49  45  86 NE14      29.69R
WRIGHTSTOWN    CLOUDY    49  47  95 NE10      29.69R
TOMS RIVER     CLOUDY    48  43  81 NE12G21   29.71S
BELMAR         CLOUDY    49  46  90 NE9       29.73S
$$

PAZ047>061-062-071-050000-
EASTERN PENNSYLVANIA

CITY           SKY/WX    TMP DP  RH WIND       PRES   REMARKS
PHILADELPHIA   CLOUDY    52  45  77 E10       29.70F
ALLENTOWN      CLOUDY    52  45  77 E9        29.71S
SCRANTON       CLOUDY    50  46  86 NE5       29.71S
$$

CTZ002-004>006-009-010-012-RIZ004-006-007-MAZ004-011-015-050000-
SOUTHERN NEW ENGLAND
 IN CT

CITY           SKY/WX    TMP DP  RH WIND       PRES   REMARKS
BRADLEY INTL   CLOUDY    49  39  68 NE12      29.78R
HARTFORD       CLOUDY    51  41  68 NE10G17   29.78R
DANBURY        LGT RAIN  49  42  77 NE13G22   29.73F
WTRBRY/OXFORD  CLOUDY    46  39  76 MISG      29.75S
BRIDGEPORT     LGT RAIN  50  46  86 N13       29.72F
MERIDEN        LGT RAIN  50  40  68 NE13      29.75F
NEW HAVEN      LGT RAIN  48  44  86 NE15      29.72F
CHESTER        LGT RAIN  45  43  93 NE12G17   29.74F
GROTON         RAIN      46  46 100 NE12      29.76S FOG
WILLIMANTIC    HVY RAIN  48  41  76 E9G21     29.79R

 IN RI

CITY           SKY/WX    TMP DP  RH WIND       PRES   REMARKS
PROVIDENCE     RAIN      44  42  93 NE14      29.79R FOG
BLOCK ISLAND   HVY RAIN  44  43  96 NE18G28     N/A  FOG
WESTERLY       LGT RAIN  46  41  82 NE8       29.77R

 IN MA

CITY           SKY/WX    TMP DP  RH WIND       PRES   REMARKS
BOSTON         RAIN      44  41  89 NE17G24   29.84R FOG
WORCESTER      CLOUDY    42  39  89 NE16G23   29.79S
WESTFIELD      CLOUDY    47  42  83 N8        29.79R
PROVINCETOWN   LGT RAIN  44  43  96 NE20G28   29.78F FOG
NANTUCKET      LGT RAIN  47  45  93 NE20      29.72S FOG
$$

ANZ330-335-338-340-345-350-353-355-050000-
COASTAL MARINE OBSERVATIONS


STATION/POSITION TIME  SKY/WX   TEMP    WIND        PRES    VSBY  WAVE
                                AIR SEA DIR/SP/G                  HT/PER
                 (UTC)          (F)     (DEG/KT/KT) (MB)    (MI)  (FT/S)
NY HARB ENTRANCE 2150            49 50   40/ 16/ 19 1005.2          7/ 6
20S FIRE ISLAND  2150            47 48   70/ 27/ 33 1003.9          8/ 7
GREAT SOUTH BAY  2200            49 55   40/ 14/ 21   N/A
23 SSW MONTAUK P 2250            45 46   30/ 21/ 29 1005.8          7/ 7
15 E BARNEGAT LI 2222               50                N/A           8/ 7
HUDSON CANYON    2150            47 48              1003.7          8/ 7
KINGS POINT      2200            49 53              1005.7
EXECUTION ROCKS  NOT AVBL
CENTRAL LI SOUND 2145            48      60/ 12/ 16   N/A           2/ 5
EASTERN LI SOUND 2200            48 48   40/ 12/ 17   N/A
ROBBINS REEF     2200            50                 1005.8
$$


>>>>>>>>>>>>>>>>>>>>>>>>>>>> KEY <<<<<<<<<<<<<<<<<<<<<<<<<<<
>                                                          <
>     SKY/WX - SKY CONDITION/PRESENT WEATHER               <
>     TMP    - TEMPERATURE IN FAHRENHEIT                   <
>     DP     - DEWPOINT IN FAHRENHEIT                      <
>     RH     - RELATIVE HUMIDITY IN PERCENT                <
>     WIND   - DIRECTION AND SPEED IN MPH                  <
>     PRES   - MEAN SEA LEVEL PRESSURE IN INCHES OF HG     <
>     WCI    - WIND CHILL INDEX                            <
>     VSB    - VISIBILITY IN MILES                         <
>     HX     - HEAT INDEX                                  <
>     TC     - TEMPERATURE IN CELSIUS                      <
>     VRB    - VARIABLE WIND DIRECTION                     <
>                                                          <
>>>>>>>>>>>>>>>>>>>>>>>>>>>> KEY <<<<<<<<<<<<<<<<<<<<<<<<<<<






USA.gov is the U.S. government's official web portal to all federal, state and local government web resources and services.